Flag Weather past 2 weeks in Chur, Graubünden, Switzerland

Now
51 °F

Cool.


Feels Like: 50 °F
Forecast: 39 / 63 °F
Wind: 5 mph from Southwest

Location: Chur-Ems

Current Time: Nov 24, 2014 at 1:38:32 AM

Latest Report: Nov 24, 2014 at 12:00 AM


Visibility: N/A

Pressure: 30.23 "Hg

Humidity: 58%

Dew point: 37 °F

Location of ChurLocation

Historic Weather in Chur — Graph

°F

Chur temperature yesterday

Maximum temperature yesterday: 63 °F (at 2:00 PM)
Minimum temperature yesterday: 45 °F (at 6:00 AM)
Average temperature yesterday: 51 °F

Past Weeks' High & Low Weather Summary

 TemperatureHumidityPressure
High65 °F (Nov 11, 3:00 PM)94% (Nov 13, 7:00 AM)30.36 "Hg (Nov 13, 7:00 AM)
Low37 °F (Nov 20, 4:00 AM)38% (Nov 11, 3:00 PM)29.56 "Hg (Nov 15, 8:00 PM)
Average48 °F72%29.92 "Hg
* Reported Midnight between Nov 8 and Nov 9 — Midnight between Nov 23 and Nov 24, Chur, Weather by CustomWeather, © 2014

Note: Actual official high and low records may vary slightly from our data, if they occured in-between our weather recording intervals... More about our weather records

Advertising

Chur weather history for previous 24 hours

 ConditionsComfort  
Time TempWeatherWind HumidityBarometerVisibility
12:00 AM
Nov 24
51 °FCool.5 mph58%30.23 "HgN/A
11:00 PM
Nov 23
52 °FCool.3 mph57%30.23 "HgN/A
10:00 PM52 °FPassing clouds.5 mph58%30.23 "Hg11 mi
9:00 PM51 °FCool.5 mph60%30.23 "HgN/A
8:00 PM53 °FCool.7 mph57%30.21 "HgN/A
7:00 PM53 °FPassing clouds.8 mph57%30.20 "Hg11 mi
6:00 PM53 °FCool.6 mph57%30.19 "HgN/A
5:00 PM55 °FCool.8 mph54%30.17 "HgN/A
4:00 PM58 °FScattered clouds.8 mph48%30.14 "Hg19 mi
3:00 PM62 °FRefreshingly cool.12 mph41%30.13 "HgN/A
2:00 PM63 °FMild.3 mph40%30.14 "HgN/A
1:00 PM62 °FPassing clouds.3 mph40%30.15 "Hg19 mi
12:00 PM58 °FRefreshingly cool.9 mph45%30.19 "HgN/A
11:00 AM54 °FCool.8 mph50%30.24 "HgN/A
10:00 AM49 °FScattered clouds.6 mph59%30.26 "Hg19 mi
9:00 AM45 °FCool.3 mph69%30.27 "HgN/A
8:00 AM46 °FCool.5 mph64%30.27 "HgN/A
7:00 AM45 °FPassing clouds.3 mph68%30.25 "Hg12 mi
6:00 AM45 °FQuite cool.5 mph69%30.24 "HgN/A
5:00 AM46 °FCool.5 mph66%30.22 "HgN/A
4:00 AM46 °FPassing clouds.6 mph66%30.22 "Hg12 mi
3:00 AM46 °FCool.5 mph68%30.24 "HgN/A
2:00 AM48 °FCool.7 mph64%30.22 "HgN/A
1:00 AM46 °FPassing clouds.7 mph70%30.23 "Hg12 mi
Weather by CustomWeather, © 2014

See weather overviewHow to use our weather pages